Time,TemperatureF,DewpointF,PressureIn,WindDirection,WindDirectionDegrees,WindSpeedMPH,WindSpeedGustMPH,Humidity,HourlyPrecipIn,Conditions,Clouds,dailyrainin,SoftwareType,DateUTC
2013-08-14 00:04:00,87.3,58.5,29.09,SSE,156,4.0,11.0,38,0.00,,,0.00,LWC V2.10 B1813,2013-08-14 05:04:00,
2013-08-14 00:09:00,87.1,59.1,29.09,South,185,6.3,6.3,39,0.00,,,0.00,LWC V2.10 B1813,2013-08-14 05:09:00,
2013-08-14 00:14:00,86.7,59.5,29.09,SSE,167,4.0,8.7,40,0.00,,,0.00,LWC V2.10 B1813,2013-08-14 05:14:00,
2013-08-14 00:19:00,86.5,60.7,29.09,SSW,205,8.1,8.1,42,0.00,,,0.00,LWC V2.10 B1813,2013-08-14 05:19:00,
2013-08-14 00:24:00,86.4,61.2,29.09,SSE,152,3.6,8.1,43,0.00,,,0.00,LWC V2.10 B1813,2013-08-14 05:24:00,
2013-08-14 00:29:00,86.2,62.9,29.09,ESE,113,5.4,8.7,46,0.00,,,0.00,LWC V2.10 B1813,2013-08-14 05:29:00,
2013-08-14 00:34:00,85.8,63.2,29.09,South,179,4.0,8.3,47,0.00,,,0.00,LWC V2.10 B1813,2013-08-14 05:34:00,
2013-08-14 00:39:00,85.6,64.8,29.09,SSW,192,5.8,10.1,50,0.00,,,0.00,LWC V2.10 B1813,2013-08-14 05:39:00,
2013-08-14 00:44:00,85.5,64.7,29.09,SSE,162,6.3,7.6,50,0.00,,,0.00,LWC V2.10 B1813,2013-08-14 05:44:00,
2013-08-14 00:49:00,85.3,65.6,29.09,SSW,196,8.1,12.3,52,0.00,,,0.00,LWC V2.10 B1813,2013-08-14 05:49:00,
2013-08-14 00:54:00,85.1,65.5,29.09,SE,126,8.1,10.5,52,0.00,,,0.00,LWC V2.10 B1813,2013-08-14 05:54:00,
2013-08-14 00:59:00,85.1,66.0,29.09,SSE,159,8.7,11.0,53,0.00,,,0.00,LWC V2.10 B1813,2013-08-14 05:59:00,
2013-08-14 01:04:00,84.9,65.8,29.09,SE,126,10.5,10.5,53,0.00,,,0.00,LWC V2.10 B1813,2013-08-14 06:04:00,
2013-08-14 01:09:00,84.7,66.2,29.09,SW,221,6.3,10.1,54,0.00,,,0.00,LWC V2.10 B1813,2013-08-14 06:09:00,
2013-08-14 01:14:00,84.7,66.2,29.09,South,186,5.4,8.3,54,0.00,,,0.00,LWC V2.10 B1813,2013-08-14 06:14:00,
2013-08-14 01:19:00,84.6,66.6,29.12,SSW,203,7.6,10.5,55,0.00,,,0.00,LWC V2.10 B1813,2013-08-14 06:19:00,
2013-08-14 01:24:00,84.6,67.1,29.12,South,186,11.0,11.0,56,0.00,,,0.00,LWC V2.10 B1813,2013-08-14 06:24:00,
2013-08-14 01:29:00,84.2,66.8,29.12,South,172,5.8,8.3,56,0.00,,,0.00,LWC V2.10 B1813,2013-08-14 06:29:00,
2013-08-14 01:34:00,84.2,66.8,29.09,SSW,195,5.8,12.3,56,0.00,,,0.00,LWC V2.10 B1813,2013-08-14 06:34:00,
2013-08-14 01:39:00,84.0,67.1,29.09,SSW,200,5.4,8.3,57,0.00,,,0.00,LWC V2.10 B1813,2013-08-14 06:39:00,
2013-08-14 01:44:00,83.8,66.9,29.09,South,179,8.1,8.7,57,0.00,,,0.00,LWC V2.10 B1813,2013-08-14 06:44:00,
2013-08-14 01:49:00,83.8,67.5,29.09,SSW,192,6.3,8.7,58,0.00,,,0.00,LWC V2.10 B1813,2013-08-14 06:49:00,
2013-08-14 01:54:00,83.7,67.3,29.09,SSW,192,3.1,6.3,58,0.00,,,0.00,LWC V2.10 B1813,2013-08-14 06:54:00,
2013-08-14 01:59:00,83.3,66.9,29.09,South,189,4.9,5.4,58,0.00,,,0.00,LWC V2.10 B1813,2013-08-14 06:59:00,
2013-08-14 02:04:00,83.3,66.9,29.09,SSW,192,8.1,8.1,58,0.00,,,0.00,LWC V2.10 B1813,2013-08-14 07:04:00,
2013-08-14 02:09:00,83.1,67.3,29.09,South,189,5.4,8.3,59,0.00,,,0.00,LWC V2.10 B1813,2013-08-14 07:09:00,
2013-08-14 02:14:00,83.1,67.3,29.09,SSE,167,4.0,5.8,59,0.00,,,0.00,LWC V2.10 B1813,2013-08-14 07:14:00,
2013-08-14 02:19:00,82.9,67.1,29.09,SSW,193,3.1,8.7,59,0.00,,,0.00,LWC V2.10 B1813,2013-08-14 07:19:00,
2013-08-14 02:24:00,82.9,67.1,29.09,South,187,4.9,8.3,59,0.00,,,0.00,LWC V2.10 B1813,2013-08-14 07:24:00,
2013-08-14 02:29:00,82.8,66.9,29.09,SW,218,5.4,8.3,59,0.00,,,0.00,LWC V2.10 B1813,2013-08-14 07:29:00,
2013-08-14 02:34:00,82.6,66.8,29.09,SSW,205,5.4,6.3,59,0.00,,,0.00,LWC V2.10 B1813,2013-08-14 07:34:00,
2013-08-14 02:40:00,82.4,66.6,29.09,South,175,5.8,5.8,59,0.00,,,0.00,LWC V2.10 B1813,2013-08-14 07:40:00,
2013-08-14 02:45:00,82.4,66.6,29.09,South,190,5.4,5.4,59,0.00,,,0.00,LWC V2.10 B1813,2013-08-14 07:45:00,
2013-08-14 02:50:00,82.4,66.6,29.09,South,190,4.9,4.9,59,0.00,,,0.00,LWC V2.10 B1813,2013-08-14 07:50:00,
2013-08-14 02:55:00,82.2,66.4,29.09,South,184,4.0,4.0,59,0.00,,,0.00,LWC V2.10 B1813,2013-08-14 07:55:00,
2013-08-14 03:00:00,82.0,66.8,29.09,SSE,162,5.4,5.8,60,0.00,,,0.00,LWC V2.10 B1813,2013-08-14 08:00:00,
2013-08-14 03:05:00,82.0,67.2,29.09,South,170,2.2,4.0,61,0.00,,,0.00,LWC V2.10 B1813,2013-08-14 08:05:00,
2013-08-14 03:10:00,81.9,67.1,29.09,South,181,6.3,6.3,61,0.00,,,0.00,LWC V2.10 B1813,2013-08-14 08:10:00,
2013-08-14 03:15:00,81.7,66.9,29.09,SSE,159,2.7,5.4,61,0.00,,,0.00,LWC V2.10 B1813,2013-08-14 08:15:00,
2013-08-14 03:20:00,81.5,67.2,29.09,SSE,160,4.9,5.8,62,0.00,,,0.00,LWC V2.10 B1813,2013-08-14 08:20:00,
2013-08-14 03:25:00,81.3,67.5,29.09,SSE,162,3.6,5.8,63,0.00,,,0.00,LWC V2.10 B1813,2013-08-14 08:25:00,
2013-08-14 03:30:00,81.3,67.5,29.09,South,186,4.0,5.8,63,0.00,,,0.00,LWC V2.10 B1813,2013-08-14 08:30:00,
2013-08-14 03:35:00,81.3,67.5,29.09,SSW,193,2.7,3.6,63,0.00,,,0.00,LWC V2.10 B1813,2013-08-14 08:35:00,
2013-08-14 03:40:00,81.3,68.0,29.09,SSW,210,3.1,5.4,64,0.00,,,0.00,LWC V2.10 B1813,2013-08-14 08:40:00,
2013-08-14 03:45:00,81.1,67.8,29.09,South,184,3.1,4.0,64,0.00,,,0.00,LWC V2.10 B1813,2013-08-14 08:45:00,
2013-08-14 03:50:00,81.0,67.6,29.09,South,178,2.7,5.8,64,0.00,,,0.00,LWC V2.10 B1813,2013-08-14 08:50:00,
2013-08-14 03:55:00,80.8,67.9,29.09,SSE,147,2.2,5.4,65,0.00,,,0.00,LWC V2.10 B1813,2013-08-14 08:55:00,
2013-08-14 04:00:00,81.0,68.1,29.09,South,184,3.6,5.4,65,0.00,,,0.00,LWC V2.10 B1813,2013-08-14 09:00:00,
2013-08-14 04:05:00,80.8,67.9,29.12,SSE,152,4.0,4.0,65,0.00,,,0.00,LWC V2.10 B1813,2013-08-14 09:05:00,
2013-08-14 04:10:00,80.8,68.3,29.12,SSW,192,4.0,5.4,66,0.00,,,0.00,LWC V2.10 B1813,2013-08-14 09:10:00,
2013-08-14 04:15:00,80.6,68.2,29.12,South,184,4.0,4.9,66,0.00,,,0.00,LWC V2.10 B1813,2013-08-14 09:15:00,
2013-08-14 04:20:00,80.4,68.4,29.12,SSW,208,5.4,5.4,67,0.00,,,0.00,LWC V2.10 B1813,2013-08-14 09:20:00,
2013-08-14 04:25:00,80.6,68.6,29.12,South,187,5.8,5.8,67,0.00,,,0.00,LWC V2.10 B1813,2013-08-14 09:25:00,
2013-08-14 04:30:00,80.4,68.4,29.12,South,188,6.3,6.3,67,0.00,,,0.00,LWC V2.10 B1813,2013-08-14 09:30:00,
2013-08-14 04:35:00,80.6,68.6,29.12,South,185,4.0,6.3,67,0.00,,,0.00,LWC V2.10 B1813,2013-08-14 09:35:00,
2013-08-14 04:40:00,80.4,68.4,29.12,South,177,4.9,4.9,67,0.00,,,0.00,LWC V2.10 B1813,2013-08-14 09:40:00,
2013-08-14 04:45:00,80.1,68.5,29.12,South,185,4.0,4.9,68,0.00,,,0.00,LWC V2.10 B1813,2013-08-14 09:45:00,
2013-08-14 04:50:00,80.1,68.5,29.12,SSE,158,6.3,6.3,68,0.00,,,0.00,LWC V2.10 B1813,2013-08-14 09:50:00,
2013-08-14 04:55:00,80.1,68.5,29.12,SSW,202,5.8,5.8,68,0.00,,,0.00,LWC V2.10 B1813,2013-08-14 09:55:00,
2013-08-14 05:00:00,80.1,68.5,29.12,South,183,4.9,6.3,68,0.00,,,0.00,LWC V2.10 B1813,2013-08-14 10:00:00,
2013-08-14 05:05:00,79.9,68.4,29.12,South,186,3.1,5.4,68,0.00,,,0.00,LWC V2.10 B1813,2013-08-14 10:05:00,
2013-08-14 05:10:00,79.9,68.4,29.12,South,182,4.0,5.8,68,0.00,,,0.00,LWC V2.10 B1813,2013-08-14 10:10:00,
2013-08-14 05:15:00,79.7,68.6,29.12,SSE,152,4.0,6.7,69,0.00,,,0.00,LWC V2.10 B1813,2013-08-14 10:15:00,
2013-08-14 05:20:00,79.7,68.2,29.12,ESE,114,3.6,7.2,68,0.00,,,0.00,LWC V2.10 B1813,2013-08-14 10:20:00,
2013-08-14 05:25:00,79.5,68.4,29.12,South,175,3.1,5.4,69,0.00,,,0.00,LWC V2.10 B1813,2013-08-14 10:25:00,
2013-08-14 05:30:00,79.3,68.3,29.12,South,173,5.4,5.8,69,0.00,,,0.00,LWC V2.10 B1813,2013-08-14 10:30:00,
2013-08-14 05:35:00,79.2,68.1,29.12,SSW,202,5.8,5.8,69,0.00,,,0.00,LWC V2.10 B1813,2013-08-14 10:35:00,
2013-08-14 05:40:00,79.3,68.3,29.12,South,191,4.0,7.6,69,0.00,,,0.00,LWC V2.10 B1813,2013-08-14 10:40:00,
2013-08-14 05:45:00,79.2,68.1,29.12,SE,146,4.9,4.9,69,0.00,,,0.00,LWC V2.10 B1813,2013-08-14 10:45:00,
2013-08-14 05:50:00,79.0,68.3,29.12,South,191,5.4,5.8,70,0.00,,,0.00,LWC V2.10 B1813,2013-08-14 10:50:00,
2013-08-14 05:55:00,79.0,68.3,29.12,SSW,198,4.9,7.2,70,0.00,,,0.00,LWC V2.10 B1813,2013-08-14 10:55:00,
2013-08-14 06:00:00,79.2,68.1,29.12,SSW,199,3.6,8.1,69,0.00,,,0.00,LWC V2.10 B1813,2013-08-14 11:00:00,
2013-08-14 06:05:00,79.2,68.1,29.12,SW,218,5.4,7.2,69,0.00,,,0.00,LWC V2.10 B1813,2013-08-14 11:05:00,
2013-08-14 06:10:00,79.0,67.9,29.12,SSW,204,4.0,5.8,69,0.00,,,0.00,LWC V2.10 B1813,2013-08-14 11:10:00,
2013-08-14 06:15:00,79.0,67.9,29.12,SSW,193,4.0,6.3,69,0.00,,,0.00,LWC V2.10 B1813,2013-08-14 11:15:00,
2013-08-14 06:20:00,79.0,67.9,29.12,SW,217,3.1,5.8,69,0.00,,,0.00,LWC V2.10 B1813,2013-08-14 11:20:00,
2013-08-14 06:25:00,79.0,67.5,29.12,South,184,3.1,3.6,68,0.00,,,0.00,LWC V2.10 B1813,2013-08-14 11:25:00,
2013-08-14 06:30:00,78.8,67.3,29.12,SSW,213,3.6,3.6,68,0.00,,,0.00,LWC V2.10 B1813,2013-08-14 11:30:00,
2013-08-14 06:35:00,78.8,67.3,29.12,SSW,204,3.1,4.0,68,0.00,,,0.00,LWC V2.10 B1813,2013-08-14 11:35:00,
2013-08-14 06:40:00,78.6,67.6,29.12,SSW,196,2.7,3.1,69,0.00,,,0.00,LWC V2.10 B1813,2013-08-14 11:40:00,
2013-08-14 06:45:00,78.4,67.4,29.12,South,178,2.7,4.0,69,0.00,,,0.00,LWC V2.10 B1813,2013-08-14 11:45:00,
2013-08-14 06:50:00,78.4,67.4,29.12,SSW,199,3.1,3.6,69,0.00,,,0.00,LWC V2.10 B1813,2013-08-14 11:50:00,
2013-08-14 06:55:00,78.3,67.2,29.12,SSW,196,3.1,3.1,69,0.00,,,0.00,LWC V2.10 B1813,2013-08-14 11:55:00,
2013-08-14 07:00:00,78.4,67.4,29.12,SSW,194,2.7,5.4,69,0.00,,,0.00,LWC V2.10 B1813,2013-08-14 12:00:00,
2013-08-14 07:05:00,78.4,67.8,29.15,SSW,199,5.4,5.8,70,0.00,,,0.00,LWC V2.10 B1813,2013-08-14 12:05:00,
2013-08-14 07:10:00,78.4,67.4,29.15,SW,214,0.0,2.7,69,0.00,,,0.00,LWC V2.10 B1813,2013-08-14 12:10:00,
2013-08-14 07:15:00,78.4,67.4,29.15,SSW,209,2.2,4.0,69,0.00,,,0.00,LWC V2.10 B1813,2013-08-14 12:15:00,
2013-08-14 07:20:00,78.6,67.6,29.15,SSW,211,0.0,3.1,69,0.00,,,0.00,LWC V2.10 B1813,2013-08-14 12:20:00,
2013-08-14 07:25:00,78.6,68.0,29.15,SSW,213,0.0,3.6,70,0.00,,,0.00,LWC V2.10 B1813,2013-08-14 12:25:00,
2013-08-14 07:30:00,78.6,67.6,29.15,SSW,202,2.2,3.1,69,0.00,,,0.00,LWC V2.10 B1813,2013-08-14 12:30:00,
2013-08-14 07:35:00,78.6,67.6,29.15,SW,222,3.1,3.1,69,0.00,,,0.00,LWC V2.10 B1813,2013-08-14 12:35:00,
2013-08-14 07:40:00,78.6,68.0,29.15,SW,216,3.1,3.1,70,0.00,,,0.00,LWC V2.10 B1813,2013-08-14 12:40:00,
2013-08-14 07:45:00,78.6,68.0,29.15,SSW,200,2.7,3.6,70,0.00,,,0.00,LWC V2.10 B1813,2013-08-14 12:45:00,
2013-08-14 07:50:00,78.6,68.4,29.15,SSW,193,4.9,4.9,71,0.00,,,0.00,LWC V2.10 B1813,2013-08-14 12:50:00,
2013-08-14 07:55:00,78.8,68.2,29.15,SW,214,3.6,4.9,70,0.00,,,0.00,LWC V2.10 B1813,2013-08-14 12:55:00,
2013-08-14 08:00:00,78.8,68.6,29.15,SW,225,3.1,5.8,71,0.00,,,0.00,LWC V2.10 B1813,2013-08-14 13:00:00,
2013-08-14 08:05:00,79.0,68.8,29.15,South,185,3.6,3.6,71,0.00,,,0.00,LWC V2.10 B1813,2013-08-14 13:05:00,
2013-08-14 08:10:00,79.2,68.9,29.15,SSW,192,3.1,3.6,71,0.00,,,0.00,LWC V2.10 B1813,2013-08-14 13:10:00,
2013-08-14 08:15:00,79.5,68.9,29.15,SW,233,0.0,3.6,70,0.00,,,0.00,LWC V2.10 B1813,2013-08-14 13:15:00,
2013-08-14 08:20:00,80.1,69.4,29.18,South,188,2.2,3.6,70,0.00,,,0.00,LWC V2.10 B1813,2013-08-14 13:20:00,
2013-08-14 08:25:00,80.4,69.3,29.18,SW,231,2.7,3.1,69,0.00,,,0.00,LWC V2.10 B1813,2013-08-14 13:25:00,
2013-08-14 08:31:00,80.1,68.9,29.18,WSW,246,3.6,5.8,69,0.00,,,0.00,LWC V2.10 B1813,2013-08-14 13:31:00,
2013-08-14 08:36:00,79.9,69.2,29.18,SW,226,3.1,4.0,70,0.00,,,0.00,LWC V2.10 B1813,2013-08-14 13:36:00,
2013-08-14 08:41:00,80.2,69.5,29.18,SW,214,5.4,6.3,70,0.00,,,0.00,LWC V2.10 B1813,2013-08-14 13:41:00,
2013-08-14 08:46:00,80.4,69.7,29.18,SW,228,4.0,7.6,70,0.00,,,0.00,LWC V2.10 B1813,2013-08-14 13:46:00,
2013-08-14 08:51:00,80.6,69.5,29.18,West,268,8.3,8.3,69,0.00,,,0.00,LWC V2.10 B1813,2013-08-14 13:51:00,
2013-08-14 08:56:00,81.0,69.4,29.18,SW,223,5.4,6.3,68,0.00,,,0.00,LWC V2.10 B1813,2013-08-14 13:56:00,
2013-08-14 09:01:00,81.3,69.7,29.18,SW,230,10.1,10.1,68,0.00,,,0.00,LWC V2.10 B1813,2013-08-14 14:01:00,
2013-08-14 09:06:00,81.9,70.2,29.18,SSW,205,5.8,6.3,68,0.00,,,0.00,LWC V2.10 B1813,2013-08-14 14:06:00,
2013-08-14 09:11:00,81.9,69.4,29.18,SSW,213,8.1,8.7,66,0.00,,,0.00,LWC V2.10 B1813,2013-08-14 14:11:00,
2013-08-14 09:16:00,82.2,69.7,29.18,SW,217,4.0,6.3,66,0.00,,,0.00,LWC V2.10 B1813,2013-08-14 14:16:00,
2013-08-14 09:21:00,82.9,69.9,29.18,WSW,240,5.4,5.8,65,0.00,,,0.00,LWC V2.10 B1813,2013-08-14 14:21:00,
2013-08-14 09:26:00,82.9,68.6,29.18,West,267,5.8,8.7,62,0.00,,,0.00,LWC V2.10 B1813,2013-08-14 14:26:00,
2013-08-14 09:31:00,83.3,68.4,29.18,SW,235,7.6,11.0,61,0.00,,,0.00,LWC V2.10 B1813,2013-08-14 14:31:00,
2013-08-14 09:36:00,83.5,68.6,29.18,SW,227,5.8,6.7,61,0.00,,,0.00,LWC V2.10 B1813,2013-08-14 14:36:00,
2013-08-14 09:41:00,83.7,68.8,29.18,SW,234,5.8,8.1,61,0.00,,,0.00,LWC V2.10 B1813,2013-08-14 14:41:00,
2013-08-14 09:46:00,83.8,68.4,29.18,SW,233,5.4,10.5,60,0.00,,,0.00,LWC V2.10 B1813,2013-08-14 14:46:00,
2013-08-14 09:51:00,84.0,68.1,29.18,SW,225,4.9,10.5,59,0.00,,,0.00,LWC V2.10 B1813,2013-08-14 14:51:00,
2013-08-14 09:56:00,84.4,68.0,29.18,SSW,210,6.3,7.2,58,0.00,,,0.00,LWC V2.10 B1813,2013-08-14 14:56:00,
2013-08-14 10:01:00,85.8,68.8,29.18,West,262,5.4,7.6,57,0.00,,,0.00,LWC V2.10 B1813,2013-08-14 15:01:00,
2013-08-14 10:06:00,86.2,67.6,29.18,SSW,213,5.8,8.3,54,0.00,,,0.00,LWC V2.10 B1813,2013-08-14 15:06:00,
2013-08-14 10:11:00,86.0,66.8,29.18,South,186,4.9,6.3,53,0.00,,,0.00,LWC V2.10 B1813,2013-08-14 15:11:00,
2013-08-14 10:16:00,86.5,66.8,29.18,SW,221,5.8,8.7,52,0.00,,,0.00,LWC V2.10 B1813,2013-08-14 15:16:00,
2013-08-14 10:21:00,86.5,66.8,29.18,WSW,247,3.1,8.1,52,0.00,,,0.00,LWC V2.10 B1813,2013-08-14 15:21:00,
2013-08-14 10:26:00,87.4,67.1,29.18,West,265,8.1,8.3,51,0.00,,,0.00,LWC V2.10 B1813,2013-08-14 15:26:00,
2013-08-14 10:31:00,87.4,66.5,29.18,West,261,8.3,11.0,50,0.00,,,0.00,LWC V2.10 B1813,2013-08-14 15:31:00,
2013-08-14 10:36:00,87.8,66.2,29.18,WNW,288,6.3,7.6,49,0.00,,,0.00,LWC V2.10 B1813,2013-08-14 15:36:00,
2013-08-14 10:41:00,88.2,66.0,29.18,West,260,8.7,8.7,48,0.00,,,0.00,LWC V2.10 B1813,2013-08-14 15:41:00,
2013-08-14 10:46:00,87.8,65.6,29.18,West,264,3.6,8.3,48,0.00,,,0.00,LWC V2.10 B1813,2013-08-14 15:46:00,
2013-08-14 10:51:00,88.5,65.7,29.18,SW,232,5.8,8.1,47,0.00,,,0.00,LWC V2.10 B1813,2013-08-14 15:51:00,
2013-08-14 10:54:00,89.1,66.2,29.18,WSW,258,4.0,6.3,47,0.00,,,0.00,LWC V2.10 B1813,2013-08-14 15:54:00,
2013-08-14 10:59:00,89.2,65.7,29.18,WSW,256,3.6,5.8,46,0.00,,,0.00,LWC V2.10 B1813,2013-08-14 15:59:00,
2013-08-14 11:04:00,89.2,65.1,29.18,SW,222,7.6,8.3,45,0.00,,,0.00,LWC V2.10 B1813,2013-08-14 16:04:00,
2013-08-14 11:09:00,89.4,65.2,29.18,WSW,242,2.7,3.6,45,0.00,,,0.00,LWC V2.10 B1813,2013-08-14 16:09:00,
2013-08-14 11:14:00,90.1,65.2,29.18,SSW,196,4.0,5.8,44,0.00,,,0.00,LWC V2.10 B1813,2013-08-14 16:14:00,
2013-08-14 11:19:00,90.3,64.7,29.18,SW,226,5.8,5.8,43,0.00,,,0.00,LWC V2.10 B1813,2013-08-14 16:19:00,
2013-08-14 11:24:00,90.9,65.2,29.18,SW,236,5.4,7.2,43,0.00,,,0.00,LWC V2.10 B1813,2013-08-14 16:24:00,
2013-08-14 11:29:00,91.2,65.5,29.18,WSW,256,5.8,5.8,43,0.00,,,0.00,LWC V2.10 B1813,2013-08-14 16:29:00,
2013-08-14 11:34:00,91.0,65.4,29.15,SW,232,2.2,4.0,43,0.00,,,0.00,LWC V2.10 B1813,2013-08-14 16:34:00,
2013-08-14 11:39:00,92.3,65.8,29.15,WNW,303,3.6,5.4,42,0.00,,,0.00,LWC V2.10 B1813,2013-08-14 16:39:00,
2013-08-14 11:44:00,92.3,65.1,29.15,WSW,257,3.1,4.9,41,0.00,,,0.00,LWC V2.10 B1813,2013-08-14 16:44:00,
2013-08-14 11:49:00,92.3,64.4,29.18,SSW,201,5.4,8.7,40,0.00,,,0.00,LWC V2.10 B1813,2013-08-14 16:49:00,
2013-08-14 11:54:00,92.3,64.4,29.18,SSW,212,5.4,7.6,40,0.00,,,0.00,LWC V2.10 B1813,2013-08-14 16:54:00,
2013-08-14 11:59:00,92.1,64.3,29.18,WSW,240,4.0,7.6,40,0.00,,,0.00,LWC V2.10 B1813,2013-08-14 16:59:00,
2013-08-14 12:04:00,92.7,64.8,29.15,SSW,209,5.8,8.3,40,0.00,,,0.00,LWC V2.10 B1813,2013-08-14 17:04:00,
2013-08-14 12:09:00,93.0,64.3,29.15,South,183,3.6,8.7,39,0.00,,,0.00,LWC V2.10 B1813,2013-08-14 17:09:00,
2013-08-14 12:14:00,93.4,64.7,29.15,SW,218,0.0,7.6,39,0.00,,,0.00,LWC V2.10 B1813,2013-08-14 17:14:00,
2013-08-14 12:19:00,93.7,65.0,29.15,South,189,5.8,5.8,39,0.00,,,0.00,LWC V2.10 B1813,2013-08-14 17:19:00,
2013-08-14 12:24:00,92.8,64.2,29.15,SSW,200,4.0,7.6,39,0.00,,,0.00,LWC V2.10 B1813,2013-08-14 17:24:00,
2013-08-14 12:29:00,93.4,63.9,29.15,South,181,3.1,4.0,38,0.00,,,0.00,LWC V2.10 B1813,2013-08-14 17:29:00,
2013-08-14 12:34:00,94.6,65.0,29.15,SW,217,3.1,6.3,38,0.00,,,0.00,LWC V2.10 B1813,2013-08-14 17:34:00,
2013-08-14 12:39:00,94.8,65.2,29.15,West,261,8.3,8.3,38,0.00,,,0.00,LWC V2.10 B1813,2013-08-14 17:39:00,
2013-08-14 12:44:00,94.8,65.2,29.15,SW,222,2.2,5.8,38,0.00,,,0.00,LWC V2.10 B1813,2013-08-14 17:44:00,
2013-08-14 12:49:00,95.5,65.1,29.15,South,181,4.9,4.9,37,0.00,,,0.00,LWC V2.10 B1813,2013-08-14 17:49:00,
2013-08-14 12:54:00,95.5,65.1,29.15,South,185,2.7,4.0,37,0.00,,,0.00,LWC V2.10 B1813,2013-08-14 17:54:00,
2013-08-14 12:59:00,96.6,65.2,29.15,WSW,254,5.4,7.6,36,0.00,,,0.00,LWC V2.10 B1813,2013-08-14 17:59:00,
2013-08-14 13:04:00,96.4,65.1,29.12,South,178,5.4,6.3,36,0.00,,,0.00,LWC V2.10 B1813,2013-08-14 18:04:00,
2013-08-14 13:09:00,97.0,64.7,29.12,South,170,5.4,5.4,35,0.00,,,0.00,LWC V2.10 B1813,2013-08-14 18:09:00,
2013-08-14 13:14:00,98.2,65.8,29.12,ENE,71,2.2,2.7,35,0.00,,,0.00,LWC V2.10 B1813,2013-08-14 18:14:00,
2013-08-14 13:19:00,99.1,64.9,29.12,SSW,212,4.0,4.0,33,0.00,,,0.00,LWC V2.10 B1813,2013-08-14 18:19:00,
2013-08-14 13:24:00,98.2,64.1,29.12,West,259,6.3,6.3,33,0.00,,,0.00,LWC V2.10 B1813,2013-08-14 18:24:00,
2013-08-14 13:29:00,97.2,63.2,29.12,SSE,152,0.0,3.1,33,0.00,,,0.00,LWC V2.10 B1813,2013-08-14 18:29:00,
2013-08-14 13:34:00,98.4,64.3,29.09,WNW,285,4.0,5.4,33,0.00,,,0.00,LWC V2.10 B1813,2013-08-14 18:34:00,
2013-08-14 13:39:00,99.1,64.0,29.09,NNE,29,3.6,4.9,32,0.00,,,0.00,LWC V2.10 B1813,2013-08-14 18:39:00,
2013-08-14 13:44:00,99.0,63.9,29.09,NNW,329,4.9,5.4,32,0.00,,,0.00,LWC V2.10 B1813,2013-08-14 18:44:00,
2013-08-14 13:49:00,97.7,62.8,29.12,NNW,340,0.0,5.8,32,0.00,,,0.00,LWC V2.10 B1813,2013-08-14 18:49:00,
2013-08-14 13:54:00,97.7,62.8,29.12,NW,305,0.0,3.6,32,0.00,,,0.00,LWC V2.10 B1813,2013-08-14 18:54:00,
2013-08-14 13:59:00,97.5,62.6,29.12,North,4,3.1,4.0,32,0.00,,,0.00,LWC V2.10 B1813,2013-08-14 18:59:00,
2013-08-14 14:04:00,97.9,62.9,29.09,North,357,3.1,4.0,32,0.00,,,0.00,LWC V2.10 B1813,2013-08-14 19:04:00,
2013-08-14 14:12:00,99.5,64.3,29.09,NE,43,3.6,5.8,32,0.00,,,0.00,LWC V2.10 B1813,2013-08-14 19:12:00,
2013-08-14 14:17:00,100.2,64.1,29.09,NNE,27,4.0,5.8,31,0.00,,,0.00,LWC V2.10 B1813,2013-08-14 19:17:00,
2013-08-14 14:22:00,100.0,63.9,29.09,NW,326,2.7,4.9,31,0.00,,,0.00,LWC V2.10 B1813,2013-08-14 19:22:00,
2013-08-14 14:27:00,99.7,63.6,29.09,NNE,16,3.1,3.6,31,0.00,,,0.00,LWC V2.10 B1813,2013-08-14 19:27:00,
2013-08-14 14:32:00,99.5,63.4,29.09,NE,49,4.5,6.3,31,0.00,,,0.00,LWC V2.10 B1813,2013-08-14 19:32:00,
2013-08-14 14:37:00,100.4,63.3,29.09,NNW,346,2.7,3.1,30,0.00,,,0.00,LWC V2.10 B1813,2013-08-14 19:37:00,
2013-08-14 14:42:00,100.0,63.0,29.09,East,97,2.7,6.3,30,0.00,,,0.00,LWC V2.10 B1813,2013-08-14 19:42:00,
2013-08-14 14:47:00,100.0,63.0,29.09,ENE,72,0.0,5.4,30,0.00,,,0.00,LWC V2.10 B1813,2013-08-14 19:47:00,
2013-08-14 14:52:00,100.8,63.6,29.09,NE,36,4.0,5.8,30,0.00,,,0.00,LWC V2.10 B1813,2013-08-14 19:52:00,
2013-08-14 14:57:00,100.6,63.4,29.09,NNE,29,0.0,4.9,30,0.00,,,0.00,LWC V2.10 B1813,2013-08-14 19:57:00,
2013-08-14 15:02:00,99.7,64.5,29.09,North,357,11.4,11.4,32,0.00,,,0.00,LWC V2.10 B1813,2013-08-14 20:02:00,
2013-08-14 15:07:00,96.6,64.4,29.09,NNE,20,3.6,14.5,35,0.00,,,0.00,LWC V2.10 B1813,2013-08-14 20:07:00,
2013-08-14 15:12:00,93.7,63.5,29.09,North,0,13.2,15.4,37,0.00,,,0.00,LWC V2.10 B1813,2013-08-14 20:12:00,
2013-08-14 15:17:00,90.0,63.1,29.09,NNE,19,8.7,11.4,41,0.00,,,0.00,LWC V2.10 B1813,2013-08-14 20:17:00,
2013-08-14 15:22:00,88.3,63.0,29.09,NNE,22,12.8,14.1,43,0.00,,,0.00,LWC V2.10 B1813,2013-08-14 20:22:00,
2013-08-14 15:27:00,87.3,62.6,29.09,North,357,8.7,14.5,44,0.00,,,0.00,LWC V2.10 B1813,2013-08-14 20:27:00,
2013-08-14 15:32:00,86.7,62.8,29.09,NNE,15,5.4,11.0,45,0.00,,,0.00,LWC V2.10 B1813,2013-08-14 20:32:00,
2013-08-14 15:37:00,86.9,63.0,29.09,North,3,9.2,9.2,45,0.00,,,0.00,LWC V2.10 B1813,2013-08-14 20:37:00,
2013-08-14 15:42:00,86.9,63.6,29.09,North,2,5.4,8.1,46,0.00,,,0.00,LWC V2.10 B1813,2013-08-14 20:42:00,
2013-08-14 15:47:00,86.4,63.1,29.06,NNE,16,4.0,10.5,46,0.00,,,0.00,LWC V2.10 B1813,2013-08-14 20:47:00,
2013-08-14 15:52:00,86.5,63.3,29.06,NNW,348,5.8,8.3,46,0.00,,,0.00,LWC V2.10 B1813,2013-08-14 20:52:00,
2013-08-14 15:57:00,86.2,63.5,29.06,North,357,11.4,11.4,47,0.00,,,0.00,LWC V2.10 B1813,2013-08-14 20:57:00,
2013-08-14 16:02:00,85.5,64.1,29.09,North,6,3.1,12.8,49,0.00,,,0.00,LWC V2.10 B1813,2013-08-14 21:02:00,
2013-08-14 16:07:00,84.9,64.2,29.09,North,6,5.8,7.6,50,0.00,,,0.00,LWC V2.10 B1813,2013-08-14 21:07:00,
2013-08-14 16:12:00,84.6,64.4,29.09,NNE,16,5.8,11.0,51,0.00,,,0.00,LWC V2.10 B1813,2013-08-14 21:12:00,
2013-08-14 16:17:00,84.6,65.0,29.06,North,357,3.6,8.3,52,0.00,,,0.00,LWC V2.10 B1813,2013-08-14 21:17:00,
2013-08-14 16:22:00,84.7,65.1,29.06,NNE,24,3.1,11.0,52,0.00,,,0.00,LWC V2.10 B1813,2013-08-14 21:22:00,
2013-08-14 16:27:00,85.1,65.5,29.06,NW,315,3.1,5.4,52,0.00,,,0.00,LWC V2.10 B1813,2013-08-14 21:27:00,
2013-08-14 16:32:00,84.6,65.0,29.09,SW,216,5.4,8.7,52,0.00,,,0.00,LWC V2.10 B1813,2013-08-14 21:32:00,
2013-08-14 16:37:00,84.4,64.2,29.09,North,3,5.4,7.6,51,0.00,,,0.00,LWC V2.10 B1813,2013-08-14 21:37:00,
2013-08-14 16:42:00,84.7,64.0,29.09,North,357,4.0,7.6,50,0.00,,,0.00,LWC V2.10 B1813,2013-08-14 21:42:00,
2013-08-14 16:47:00,84.9,63.6,29.09,NNW,336,4.0,5.4,49,0.00,,,0.00,LWC V2.10 B1813,2013-08-14 21:47:00,
2013-08-14 16:52:00,85.3,63.9,29.09,WNW,299,2.7,3.6,49,0.00,,,0.00,LWC V2.10 B1813,2013-08-14 21:52:00,
2013-08-14 16:58:00,85.3,63.3,29.09,NNW,335,3.1,5.4,48,0.00,,,0.00,LWC V2.10 B1813,2013-08-14 21:58:00,
2013-08-14 17:03:00,85.1,63.2,29.09,North,353,6.3,8.7,48,0.00,,,0.00,LWC V2.10 B1813,2013-08-14 22:03:00,
2013-08-14 17:08:00,84.7,63.4,29.09,NNW,329,4.9,5.8,49,0.00,,,0.00,LWC V2.10 B1813,2013-08-14 22:08:00,
2013-08-14 17:13:00,84.4,63.1,29.09,North,9,8.7,11.0,49,0.00,,,0.00,LWC V2.10 B1813,2013-08-14 22:13:00,
2013-08-14 17:18:00,83.5,62.9,29.09,North,357,8.3,11.4,50,0.00,,,0.00,LWC V2.10 B1813,2013-08-14 22:18:00,
2013-08-14 17:23:00,82.9,62.9,29.09,NNE,26,4.5,5.4,51,0.00,,,0.00,LWC V2.10 B1813,2013-08-14 22:23:00,
2013-08-14 17:28:00,82.4,63.0,29.09,North,353,3.6,8.1,52,0.00,,,0.00,LWC V2.10 B1813,2013-08-14 22:28:00,
2013-08-14 17:33:00,82.2,63.9,29.09,NNE,17,5.4,7.6,54,0.00,,,0.00,LWC V2.10 B1813,2013-08-14 22:33:00,
2013-08-14 17:38:00,82.0,64.2,29.09,North,11,0.0,3.6,55,0.00,,,0.00,LWC V2.10 B1813,2013-08-14 22:38:00,
2013-08-14 17:43:00,81.7,63.9,29.09,NNE,23,2.2,6.3,55,0.00,,,0.00,LWC V2.10 B1813,2013-08-14 22:43:00,
2013-08-14 17:48:00,81.5,64.3,29.09,NNW,338,5.4,5.4,56,0.00,,,0.00,LWC V2.10 B1813,2013-08-14 22:48:00,
2013-08-14 17:53:00,81.5,64.3,29.09,NE,38,0.0,0.0,56,0.00,,,0.00,LWC V2.10 B1813,2013-08-14 22:53:00,
2013-08-14 17:58:00,81.5,64.3,29.09,NNE,18,0.0,0.0,56,0.00,,,0.00,LWC V2.10 B1813,2013-08-14 22:58:00,
2013-08-14 18:03:00,81.3,64.1,29.09,NE,35,0.0,6.3,56,0.00,,,0.00,LWC V2.10 B1813,2013-08-14 23:03:00,
2013-08-14 18:08:00,81.3,64.1,29.09,NNE,33,0.0,0.0,56,0.00,,,0.00,LWC V2.10 B1813,2013-08-14 23:08:00,
2013-08-14 18:13:00,81.9,64.6,29.09,WSW,243,3.6,3.6,56,0.00,,,0.00,LWC V2.10 B1813,2013-08-14 23:13:00,
2013-08-14 18:18:00,82.6,64.7,29.09,WSW,243,0.0,0.0,55,0.00,,,0.00,LWC V2.10 B1813,2013-08-14 23:18:00,
2013-08-14 18:23:00,82.9,64.6,29.09,NNE,17,0.0,2.7,54,0.00,,,0.00,LWC V2.10 B1813,2013-08-14 23:23:00,
2013-08-14 18:28:00,82.9,64.6,29.09,NNE,18,4.0,4.0,54,0.00,,,0.00,LWC V2.10 B1813,2013-08-14 23:28:00,
2013-08-14 18:33:00,82.8,64.9,29.06,North,9,4.0,4.9,55,0.00,,,0.00,LWC V2.10 B1813,2013-08-14 23:33:00,
2013-08-14 18:38:00,82.4,64.6,29.06,ENE,77,3.6,5.8,55,0.00,,,0.00,LWC V2.10 B1813,2013-08-14 23:38:00,
2013-08-14 18:43:00,82.6,64.7,29.06,North,357,2.7,5.8,55,0.00,,,0.00,LWC V2.10 B1813,2013-08-14 23:43:00,
2013-08-14 18:48:00,82.6,65.8,29.06,WNW,284,0.0,2.2,57,0.00,,,0.00,LWC V2.10 B1813,2013-08-14 23:48:00,
2013-08-14 18:53:00,82.4,65.1,29.06,North,4,3.6,4.0,56,0.00,,,0.00,LWC V2.10 B1813,2013-08-14 23:53:00,
2013-08-14 18:58:00,82.2,65.4,29.06,NNE,12,0.0,0.0,57,0.00,,,0.00,LWC V2.10 B1813,2013-08-14 23:58:00,
2013-08-14 19:03:00,82.2,65.9,29.06,NNE,31,2.2,2.2,58,0.00,,,0.00,LWC V2.10 B1813,2013-08-15 00:03:00,
2013-08-14 19:08:00,82.4,66.6,29.06,North,350,0.0,0.0,59,0.00,,,0.00,LWC V2.10 B1813,2013-08-15 00:08:00,
2013-08-14 19:13:00,82.2,66.9,29.06,NNE,17,2.2,3.1,60,0.00,,,0.00,LWC V2.10 B1813,2013-08-15 00:13:00,
2013-08-14 19:18:00,81.7,66.9,29.09,NE,35,0.0,5.4,61,0.00,,,0.00,LWC V2.10 B1813,2013-08-15 00:18:00,
2013-08-14 19:23:00,81.3,66.6,29.09,East,98,0.0,3.6,61,0.00,,,0.00,LWC V2.10 B1813,2013-08-15 00:23:00,
2013-08-14 19:28:00,81.0,67.2,29.09,NE,51,3.1,3.6,63,0.00,,,0.00,LWC V2.10 B1813,2013-08-15 00:28:00,
2013-08-14 19:33:00,80.6,67.3,29.09,ENE,77,2.2,3.6,64,0.00,,,0.00,LWC V2.10 B1813,2013-08-15 00:33:00,
2013-08-14 19:38:00,80.4,67.6,29.09,ENE,68,3.1,3.6,65,0.00,,,0.00,LWC V2.10 B1813,2013-08-15 00:38:00,
2013-08-14 19:43:00,80.1,67.2,29.09,NE,48,4.9,6.3,65,0.00,,,0.00,LWC V2.10 B1813,2013-08-15 00:43:00,
2013-08-14 19:48:00,80.1,67.7,29.09,North,0,0.0,4.0,66,0.00,,,0.00,LWC V2.10 B1813,2013-08-15 00:48:00,
2013-08-14 19:53:00,79.9,67.5,29.09,NE,41,0.0,4.5,66,0.00,,,0.00,LWC V2.10 B1813,2013-08-15 00:53:00,
2013-08-14 19:58:00,79.9,67.5,29.09,WNW,286,2.2,4.0,66,0.00,,,0.00,LWC V2.10 B1813,2013-08-15 00:58:00,
2013-08-14 20:03:00,79.9,67.5,29.09,ENE,66,0.0,3.6,66,0.00,,,0.00,LWC V2.10 B1813,2013-08-15 01:03:00,
2013-08-14 20:08:00,79.9,67.5,29.09,NE,40,2.2,3.1,66,0.00,,,0.00,LWC V2.10 B1813,2013-08-15 01:08:00,
2013-08-14 20:13:00,79.9,67.5,29.09,ESE,104,0.0,3.1,66,0.00,,,0.00,LWC V2.10 B1813,2013-08-15 01:13:00,
2013-08-14 20:18:00,79.7,67.3,29.09,East,100,2.2,3.1,66,0.00,,,0.00,LWC V2.10 B1813,2013-08-15 01:18:00,
2013-08-14 20:23:00,79.5,67.1,29.09,NE,50,0.0,2.7,66,0.00,,,0.00,LWC V2.10 B1813,2013-08-15 01:23:00,
2013-08-14 20:28:00,79.5,67.1,29.09,East,87,3.6,4.9,66,0.00,,,0.00,LWC V2.10 B1813,2013-08-15 01:28:00,
2013-08-14 20:33:00,79.5,67.1,29.12,ESE,111,0.0,3.6,66,0.00,,,0.00,LWC V2.10 B1813,2013-08-15 01:33:00,
2013-08-14 20:38:00,79.5,67.1,29.12,East,87,0.0,3.1,66,0.00,,,0.00,LWC V2.10 B1813,2013-08-15 01:38:00,
2013-08-14 20:43:00,79.5,67.6,29.12,East,86,0.0,2.7,67,0.00,,,0.00,LWC V2.10 B1813,2013-08-15 01:43:00,
2013-08-14 20:48:00,79.5,67.6,29.12,NE,55,0.0,0.0,67,0.00,,,0.00,LWC V2.10 B1813,2013-08-15 01:48:00,
2013-08-14 20:53:00,79.5,67.6,29.12,ENE,61,2.2,4.0,67,0.00,,,0.00,LWC V2.10 B1813,2013-08-15 01:53:00,
2013-08-14 20:58:00,79.5,67.6,29.12,ENE,76,0.0,0.0,67,0.00,,,0.00,LWC V2.10 B1813,2013-08-15 01:58:00,
2013-08-14 21:03:00,79.5,67.6,29.12,ENE,65,4.5,4.5,67,0.00,,,0.00,LWC V2.10 B1813,2013-08-15 02:03:00,
2013-08-14 21:08:00,79.3,67.8,29.12,NE,43,0.0,2.7,68,0.00,,,0.00,LWC V2.10 B1813,2013-08-15 02:08:00,
2013-08-14 21:13:00,79.3,67.8,29.12,SW,223,0.0,2.7,68,0.00,,,0.00,LWC V2.10 B1813,2013-08-15 02:13:00,
2013-08-14 21:18:00,79.3,67.8,29.12,ENE,57,0.0,3.6,68,0.00,,,0.00,LWC V2.10 B1813,2013-08-15 02:18:00,
2013-08-14 21:23:00,79.2,67.7,29.12,ENE,77,3.6,3.6,68,0.00,,,0.00,LWC V2.10 B1813,2013-08-15 02:23:00,
2013-08-14 21:28:00,79.2,67.7,29.12,NNE,28,0.0,0.0,68,0.00,,,0.00,LWC V2.10 B1813,2013-08-15 02:28:00,
2013-08-14 21:33:00,79.2,68.1,29.12,ENE,57,2.7,2.7,69,0.00,,,0.00,LWC V2.10 B1813,2013-08-15 02:33:00,
2013-08-14 21:38:00,79.0,67.9,29.12,NE,48,0.0,3.1,69,0.00,,,0.00,LWC V2.10 B1813,2013-08-15 02:38:00,
2013-08-14 21:43:00,79.0,67.9,29.12,East,95,2.2,2.2,69,0.00,,,0.00,LWC V2.10 B1813,2013-08-15 02:43:00,
2013-08-14 21:48:00,79.0,67.9,29.15,East,83,4.5,4.5,69,0.00,,,0.00,LWC V2.10 B1813,2013-08-15 02:48:00,
2013-08-14 21:53:00,79.0,67.9,29.15,NE,36,3.1,3.1,69,0.00,,,0.00,LWC V2.10 B1813,2013-08-15 02:53:00,
2013-08-14 21:58:00,78.8,67.7,29.15,North,357,0.0,0.0,69,0.00,,,0.00,LWC V2.10 B1813,2013-08-15 02:58:00,
2013-08-14 22:03:00,78.8,67.7,29.15,ENE,64,0.0,4.0,69,0.00,,,0.00,LWC V2.10 B1813,2013-08-15 03:03:00,
2013-08-14 22:08:00,78.6,68.0,29.15,ENE,65,0.0,3.1,70,0.00,,,0.00,LWC V2.10 B1813,2013-08-15 03:08:00,
2013-08-14 22:13:00,78.6,68.0,29.15,ENE,69,5.4,5.4,70,0.00,,,0.00,LWC V2.10 B1813,2013-08-15 03:13:00,
2013-08-14 22:18:00,78.3,68.1,29.15,East,87,3.6,4.0,71,0.00,,,0.00,LWC V2.10 B1813,2013-08-15 03:18:00,
2013-08-14 22:23:00,77.9,68.1,29.15,ENE,69,3.6,4.9,72,0.00,,,0.00,LWC V2.10 B1813,2013-08-15 03:23:00,
2013-08-14 22:28:00,77.7,68.0,29.15,ENE,75,2.2,4.9,72,0.00,,,0.00,LWC V2.10 B1813,2013-08-15 03:28:00,
2013-08-14 22:33:00,77.7,68.4,29.15,ENE,57,2.7,6.3,73,0.00,,,0.00,LWC V2.10 B1813,2013-08-15 03:33:00,
2013-08-14 22:38:00,77.5,68.6,29.15,NE,49,3.6,5.8,74,0.00,,,0.00,LWC V2.10 B1813,2013-08-15 03:38:00,
2013-08-14 22:43:00,77.4,68.4,29.15,ENE,71,3.1,7.2,74,0.00,,,0.00,LWC V2.10 B1813,2013-08-15 03:43:00,
2013-08-14 22:48:00,77.4,68.8,29.15,East,100,4.0,7.6,75,0.00,,,0.00,LWC V2.10 B1813,2013-08-15 03:48:00,
2013-08-14 22:53:00,77.4,69.2,29.15,ENE,77,4.0,5.8,76,0.00,,,0.00,LWC V2.10 B1813,2013-08-15 03:53:00,
2013-08-14 22:58:00,77.4,69.2,29.15,ENE,59,2.7,4.0,76,0.00,,,0.00,LWC V2.10 B1813,2013-08-15 03:58:00,
2013-08-14 23:01:00,77.4,69.2,29.15,NE,44,2.7,6.3,76,0.00,,,0.00,LWC V2.10 B1813,2013-08-15 04:01:00,
2013-08-14 23:06:00,77.4,69.6,29.18,East,98,0.0,2.7,77,0.00,,,0.00,LWC V2.10 B1813,2013-08-15 04:06:00,
2013-08-14 23:11:00,77.4,69.6,29.18,East,80,2.2,3.6,77,0.00,,,0.00,LWC V2.10 B1813,2013-08-15 04:11:00,
2013-08-14 23:16:00,77.5,69.7,29.18,West,263,2.7,3.6,77,0.00,,,0.00,LWC V2.10 B1813,2013-08-15 04:16:00,
2013-08-14 23:21:00,77.7,69.9,29.18,NE,47,0.0,0.0,77,0.00,,,0.00,LWC V2.10 B1813,2013-08-15 04:21:00,
2013-08-14 23:26:00,77.9,70.1,29.18,NNE,27,2.7,3.6,77,0.00,,,0.00,LWC V2.10 B1813,2013-08-15 04:26:00,
2013-08-14 23:31:00,77.7,69.9,29.18,ESE,114,2.2,3.1,77,0.00,,,0.00,LWC V2.10 B1813,2013-08-15 04:31:00,
2013-08-14 23:36:00,77.5,69.7,29.18,East,79,0.0,3.6,77,0.00,,,0.00,LWC V2.10 B1813,2013-08-15 04:36:00,
2013-08-14 23:41:00,77.4,69.9,29.18,East,90,2.2,2.7,78,0.00,,,0.00,LWC V2.10 B1813,2013-08-15 04:41:00,
2013-08-14 23:46:00,77.0,70.0,29.18,ENE,66,2.2,4.0,79,0.00,,,0.00,LWC V2.10 B1813,2013-08-15 04:46:00,
2013-08-14 23:52:00,76.5,70.2,29.18,ENE,66,3.6,5.8,81,0.00,,,0.00,LWC V2.10 B1813,2013-08-15 04:52:00,
2013-08-14 23:57:00,76.1,70.2,29.18,East,89,2.7,3.6,82,0.00,,,0.00,LWC V2.10 B1813,2013-08-15 04:57:00,